Preview of NWS' New Version of Forecast
This preview is not operational and should not be used for support decisions.
Latest weather observations around

Talladega Municipal Airport (KASN)

Using International System of Units (Switch to English Units)
Date/ Time (CDT) Wind (kph) Vis. (km) Weather Sky Cond. Temp (°C) Rel. Humidity Wind Chill (°C) Heat Index (°C) Pressure Precip. (cm)
Air Dwpt 6 hour Altimeter (hPa) Sea level (hPa) 1 hr 3 hr 6 hr
Max Min
May 26 23:55 Calm 16.09 Light Rain SCT021 SCT033 BKN040 22 22     96%   23 1013.9   0    
May 26 23:35 SSW 5 16.09 Rain SCT018 SCT029 OVC035 23 22     95%   23 1013.9   0    
May 26 23:15 SSW 13 11.27 Rain SCT020 BKN039 BKN046 23 22     94%   24 1013.9   0    
May 26 22:55 SSW 9 16.09 Mostly Cloudy BKN037 BKN046 BKN050 24 21     84%   25 1014.2        
May 26 22:35 SSE 5 16.09 Mostly Cloudy BKN039 BKN046 BKN050 24 21     83%   25 1013.9        
May 26 22:15 Calm 16.09 Mostly Cloudy BKN041 BKN050 24 21     83%   25 1013.9        
May 26 21:55 SSE 8 16.09 Partly Cloudy SCT041 SCT120 23 21     90%   24 1013.6        
May 26 21:35 Calm 16.09 Partly Cloudy SCT055 SCT070 SCT120 23 22     93%   24 1012.9        
May 26 21:15 Calm 16.09 Mostly Cloudy SCT055 BKN120 23 22     94%   24 1012.9        
May 26 20:55 Calm 16.09 Partly Cloudy SCT120 24 22     90%   25 1012.9        
May 26 20:35 ENE 5 16.09 Clear CLR 24 22     90%   24 1012.5        
May 26 20:15 Calm 16.09 Clear CLR 24 22     89%   24 1011.9        
May 26 19:55 Calm 16.09 Clear CLR 25 22     83%   25 1011.5        
May 26 19:35 Calm 16.09 Clear CLR 25 22     82%   26 1011.5        
May 26 19:15 Calm 16.09 Clear CLR 25 21     80%   26 1011.5        
May 26 18:55 Calm 16.09 Clear CLR 25 21     80%   26 1011.5        
May 26 18:35 E 8 16.09 Partly Cloudy SCT048 26 21     77%   26 1011.5        
May 26 18:15 NNE 9 16.09 Partly Cloudy SCT048 26 21     74%   28 1011.2        
May 26 17:55 N 9 16.09 Thunderstorms SCT048 SCT060 27 21     70%   28 1011.2        
May 26 17:35 NE 13 16.09 Thunderstorms BKN046 BKN060 BKN110 27 21     67%   29 1011.2        
May 26 17:15 NE 11 16.09 Mostly Cloudy SCT046 SCT050 BKN100 28 20     65%   30 1011.2        
May 26 16:55 NNE 8 16.09 Cloudy BKN046 BKN075 OVC090 29 20     57%   31 1011.5        
May 26 16:35 Calm 16.09 Mostly Cloudy BKN046 BKN060 BKN090 30 20     55%   32 1011.2        
May 26 16:15 Calm 16.09 Partly Cloudy SCT046 SCT060 30 20     55%   32 1011.2        
May 26 15:55 Calm 16.09 Partly Cloudy SCT095 30 20     55%   32 1011.2        
May 26 15:35 Calm 16.09 Mostly Cloudy SCT075 BKN095 29 20     58%   31 1011.2        
May 26 15:15 SSE 11 16.09 Mostly Cloudy SCT048 SCT060 BKN080 30 21     59%   32 1011.5        
May 26 14:55 SW 13 16.09 Mostly Cloudy SCT048 SCT050 BKN100 30 20     55%   32 1011.9        
May 26 14:35 Calm 16.09 Partly Cloudy SCT043 SCT055 29 19     56%   31 1011.9        
May 26 14:15 Calm 16.09 Clear CLR 30 20     57%   32 1012.5        
May 26 13:55 Calm 16.09 Clear CLR 29 20     56%   31 1012.9        
May 26 13:35 SW 9 16.09 Clear CLR 29 21     60%   32 1013.6        
May 26 13:15 SE 5 16.09 Partly Cloudy SCT034 29 21     62%   31 1013.6        
May 26 12:55 S 8 16.09 Clear CLR 29 21     62%   31 1013.9        
May 26 12:35 SSE 8 16.09 Clear CLR 29 21     62%   31 1014.2        
May 26 12:15 Calm 16.09 Partly Cloudy SCT030 28 20     61%   30 1014.6        
May 26 11:55 Calm 16.09 Partly Cloudy SCT030 27 20     64%   29 1014.6        
May 26 11:35 SSE 5 16.09 Partly Cloudy SCT030 27 21     69%   28 1014.9        
May 26 11:15 Calm 16.09 Partly Cloudy SCT019 SCT030 26 20     69%   28 1015.2        
May 26 10:55 SSE 5 16.09 Mostly Cloudy SCT019 BKN030 26 21     77%   26 1015.6        
May 26 10:35 S 8 16.09 Mostly Cloudy SCT015 SCT026 BKN032 25 21     79%   26 1015.6        
May 26 10:15 S 8 16.09 Cloudy SCT015 BKN023 OVC028 24 21     82%   25 1015.6        
May 26 09:55 S 8 16.09 Cloudy SCT015 OVC023 24 21     84%   25 1015.6        
May 26 09:35 Calm 16.09 Cloudy BKN011 BKN016 OVC023 24 21     84%   25 1015.6        
May 26 09:15 SE 8 16.09 Cloudy SCT011 OVC017 24 22     88%   25 1015.6        
May 26 08:55 S 5 16.09 Cloudy SCT009 OVC016 23 22     90%   24 1015.6        
May 26 08:35 S 5 16.09 Mostly Cloudy SCT008 BKN016 23 21     90%   24 1015.6        
May 26 08:15 SSE 5 16.09 Clear CLR 23 22     94%   23 1015.2        
May 26 07:55 Calm 16.09 Clear CLR 22 22     95%   23 1014.9        
May 26 07:35 Calm 16.09 Clear CLR 22 22     95%   23 1014.9        
May 26 07:15 Calm 16.09 Clear CLR 22 21     95%   23 1014.6        
May 26 06:55 SSE 5 16.09 Partly Cloudy SCT019 22 21     96%   23 1014.6        
May 26 06:35 Calm 16.09 Mostly Cloudy BKN019 22 21     97%   22 1014.2        
May 26 06:15 WSW 5 16.09 Cloudy SCT011 OVC019 22 21     95%   23 1013.9        
May 26 05:55 W 5 16.09 Cloudy BKN010 OVC017 22 21     98%   22 1013.9        
May 26 05:35 Calm 16.09 Cloudy BKN010 OVC016 21 21     98%     1013.9        
May 26 05:15 Calm 16.09 Cloudy OVC017 21 20     97%     1013.2        
May 26 04:55 Calm 16.09 Cloudy OVC019 21 21     99%     1013.6        
May 26 04:35 Calm 16.09 Mostly Cloudy BKN017 21 20     99%     1013.6        
May 26 04:15 Calm 16.09 Cloudy BKN012 OVC019 20 20     99%     1013.6        
May 26 03:55 Calm 16.09 Mostly Cloudy BKN012 BKN030 21 20     99%     1013.6        
May 26 03:35 Calm 16.09 Clear CLR 20 20     100%     1013.6        
May 26 03:15 Calm 16.09 Clear CLR 21 20     98%     1013.6        
May 26 02:55 Calm 16.09 Clear CLR 21 20     99%     1013.6        
May 26 02:35 Calm 16.09 Clear CLR 21 21     100%     1013.6        
May 26 02:15 Calm 16.09 Partly Cloudy SCT120 21 21     100%     1013.6        
May 26 01:55 Calm 16.09 Mostly Cloudy SCT009 SCT016 BKN120 21 21     99%     1013.9        
May 26 01:35 Calm 16.09 Mostly Cloudy BKN009 BKN016 BKN110 20 20     100%     1014.2        
May 26 01:15 Calm 16.09 Partly Cloudy SCT007 20 20     99%     1014.2        
May 26 00:55 Calm 16.09 Clear CLR 20 20     98%     1014.2        
May 26 00:35 Calm 16.09 Clear CLR 21 20     98%     1014.2        
May 26 00:15 Calm 16.09 Clear CLR 21 20     95%   22 1014.6        
May 25 23:55 Calm 16.09 Clear CLR 21 21     97%     1014.6        
May 25 23:35 Calm 16.09 Clear CLR 22 21     94%   22 1014.6        
May 25 23:15 Calm 16.09 Partly Cloudy SCT120 21 21     96%   22 1014.6        
May 25 22:55 Calm 16.09 Partly Cloudy SCT120 22 21     93%   22 1014.9        
May 25 22:35 Calm 16.09 Clear CLR 22 21     91%   23 1015.2        
May 25 22:15 Calm 16.09 Clear CLR 22 21     92%   23 1014.9        
May 25 21:55 Calm 16.09 Clear CLR 22 21     95%   23 1014.9        
May 25 21:35 Calm 16.09 Clear CLR 22 21     92%   23 1015.2        
May 25 21:15 Calm 16.09 Partly Cloudy SCT120 22 21     94%   22 1015.2        
May 25 20:55 Calm 16.09 Partly Cloudy SCT120 22 20     88%   23 1015.2        
May 25 20:35 WNW 5 16.09 Mostly Cloudy BKN120 22 20     89%   23 1014.9        
May 25 20:15 Calm 16.09 Partly Cloudy SCT120 22 21     89%   23 1015.2        
May 25 19:55 WNW 9 16.09 Clear CLR 23 21     87%   23 1014.9        
May 25 19:35 W 8 16.09 Clear CLR 24 21     83%   24 1014.9        
May 25 19:15 SSW 5 16.09 Clear CLR 23 20     81%   24 1014.6        
May 25 18:55 Calm 16.09 Clear CLR 24 21     83%   24 1013.9        
May 25 18:35 Calm 16.09 Clear CLR 24 21     84%   24 1013.6        
May 25 18:15 Calm 16.09 Clear CLR 24 21     85%   24 1013.6        
May 25 17:55 SW 5 16.09 Clear CLR 24 21     84%   24 1013.6        
May 25 17:35 Calm 16.09 Clear CLR 24 20     82%   24 1013.9        
May 25 17:15 SW 8 16.09 Clear CLR 23 20     84%   24 1013.9        
May 25 16:55 WSW 9 16.09 Clear CLR 24 21     87%   24 1013.9        
May 25 16:35 WSW 9 16.09 Clear CLR 25 21     81%   25 1014.2        
May 25 16:15 WSW 8 16.09 Clear CLR 25 21     79%   26 1014.2        
May 25 15:55 SW 11 16.09 Clear CLR 26 21     77%   26 1014.2        
May 25 15:35 SW 11 16.09 Partly Cloudy SCT044 26 22     78%   28 1014.2        
May 25 15:15 SW 11 16.09 Partly Cloudy SCT044 27 22     77%   29 1014.6        
May 25 14:55 S 8 16.09 Clear CLR 29 20     60%   30 1014.9        
May 25 14:35 E 5 16.09 Clear CLR 29 20     60%   31 1014.6        
May 25 14:15 ESE 8 16.09 Clear CLR 29 20     58%   31 1014.9        
May 25 13:55 ENE 9 16.09 Clear CLR 29 19     56%   31 1015.2        
May 25 13:35 E 13 16.09 Partly Cloudy SCT039 30 21     57%   32 1015.2        
May 25 13:15 E 15 16.09 Partly Cloudy SCT037 30 21     60%   33 1015.6        
May 25 12:55 ENE 9 16.09 Partly Cloudy SCT035 29 21     62%   32 1015.9        
May 25 12:35 E 9 16.09 Partly Cloudy SCT032 29 21     63%   32 1016.3        
May 25 12:15 E 11 16.09 Clear CLR 29 22     66%   32 1016.6        
May 25 11:55 E 13 16.09 Partly Cloudy SCT027 SCT032 SCT041 29 22     68%   32 1016.9        
May 25 11:35 E 13 16.09 Partly Cloudy SCT024 SCT041 29 22     68%   32 1017.3        
May 25 11:15 ESE 11 16.09 Partly Cloudy SCT022 SCT027 28 22     71%   30 1017.3        
May 25 10:55 ESE 9 16.09 Partly Cloudy SCT022 27 22     73%   30 1017.6        
May 25 10:35 E 8 16.09 Clear CLR 27 22     74%   29 1017.6        
May 25 10:15 Calm 16.09 Partly Cloudy SCT018 27 22     76%   29 1017.6        
May 25 09:55 ENE 8 16.09 Mostly Cloudy SCT016 BKN022 26 22     78%   29 1018        
May 25 09:35 NE 8 16.09 Mostly Cloudy BKN014 26 22     81%   27 1018        
May 25 09:15 Calm 16.09 Partly Cloudy SCT012 25 22     85%   26 1018        
May 25 08:55 Calm 16.09 Clear CLR 24 22     89%   25 1018        
May 25 08:35 Calm 16.09 Partly Cloudy SCT044 24 22     91%   24 1018.3        
May 25 08:15 Calm 16.09 Cloudy SCT016 SCT022 OVC044 23 22     93%   24 1018.3        
May 25 07:55 Calm 16.09 Cloudy SCT008 BKN016 OVC042 23 22     95%   23 1018.3        
May 25 07:35 Calm 16.09 Cloudy SCT008 OVC016 22 22     95%   23 1018.3        
May 25 07:15 Calm 16.09 Cloudy BKN008 OVC014 22 21     96%   23 1018.3        
May 25 06:55 Calm 16.09 Mostly Cloudy BKN008 BKN014 BKN035 22 21     96%   23 1018        
May 25 06:35 NW 5 16.09 Mostly Cloudy BKN035 22 21     96%   23 1017.6        
May 25 06:15 Calm 16.09 Mostly Cloudy BKN033 BKN043 BKN080 21 21     97%   22 1017.6        
May 25 05:55 Calm 16.09 Mostly Cloudy BKN033 BKN043 BKN080 21 21     98%   22 1017.3        
May 25 05:35 Calm 16.09 Partly Cloudy SCT035 21 21     98%   22 1017.6        
May 25 05:15 Calm 16.09 Partly Cloudy SCT035 SCT044 21 21     98%     1017.3        
May 25 04:55 Calm 16.09 Partly Cloudy SCT036 SCT044 SCT060 21 20     99%     1016.9        
May 25 04:35 Calm 11.27 Mostly Cloudy SCT036 SCT045 BKN080 21 21     100%     1016.9        
May 25 04:15 Calm 16.09 Mostly Cloudy SCT035 BKN045 BKN080 21 21     99%     1016.9        
May 25 03:55 Calm 16.09 Mostly Cloudy SCT035 BKN043 21 21     100%     1016.9        
May 25 03:35 Calm 16.09 Mostly Cloudy BKN038 21 21     99%     1016.9        
May 25 03:15 Calm 16.09 Mostly Cloudy BKN036 BKN045 21 21     99%     1016.9        
May 25 02:55 Calm 16.09 Mostly Cloudy BKN036 BKN045 21 21     100%     1016.9        
May 25 02:35 ENE 5 11.27 Partly Cloudy SCT031 SCT038 SCT045 21 21     100%     1017.6        
May 25 02:15 NE 5 16.09 Partly Cloudy SCT031 SCT038 21 21     99%     1017.6        
May 25 01:55 N 5 16.09 Partly Cloudy SCT038 SCT055 21 21     99%     1017.6        
May 25 01:35 Calm 16.09 Partly Cloudy SCT050 21 21     99%   22 1018        
May 25 01:15 Calm 16.09 Clear CLR 21 21     99%     1018.3        
May 25 00:55 Calm 16.09 Clear CLR 21 21     99%   22 1018        
May 25 00:35 Calm 16.09 Clear CLR 21 21     98%   22 1018.6        
May 25 00:15 Calm 16.09 Clear CLR 21 21     99%   22 1018.6        
May 24 23:55 S 8 16.09 Clear CLR 21 21     99%   22 1019        
May 24 23:35 Calm 16.09 Clear CLR 22 21     98%   22 1019        
May 24 23:15 Calm 16.09 Partly Cloudy SCT050 SCT065 22 22     98%   23 1019        
May 24 22:55 Calm 16.09 Mostly Cloudy SCT050 BKN065 22 22     96%   23 1019        
May 24 22:35 Calm 16.09 Clear CLR 22 21     94%   23 1019        
May 24 22:15 Calm 16.09 Clear CLR 23 22     94%   24 1019        
May 24 21:55 Calm 16.09 Clear CLR 23 22     93%   24 1018.6        
May 24 21:35 Calm 16.09 Clear CLR 23 22     94%   24 1018.3        
May 24 21:15 Calm 16.09 Clear CLR 23 22     94%   24 1018        
May 24 20:55 Calm 16.09 Clear CLR 24 22     90%   25 1017.6        
May 24 20:35 Calm 16.09 Clear CLR 24 22     88%   25 1017.3        
May 24 20:15 SSE 5 16.09 Clear CLR 24 22     84%   25 1017.3        
May 24 19:55 SSW 5 16.09 Clear CLR 25 22     83%   25 1017.3        
May 24 19:35 Calm 16.09 Clear CLR 25 22     83%   26 1017.3        
May 24 19:15 SSW 5 16.09 Clear CLR 26 21     78%   26 1017.3        
May 24 18:55 WSW 8 16.09 Clear CLR 26 21     74%   28 1016.9        
May 24 18:35 WSW 9 16.09 Clear CLR 26 22     76%   28 1016.9        
May 24 18:15 SSW 9 16.09 Clear CLR 27 23     80%   29 1016.9        
May 24 17:55 S 9 16.09 Clear CLR 27 23     78%   30 1016.9        
May 24 17:35 SSW 8 16.09 Clear CLR 27 23     76%   30 1016.9        
May 24 17:15 SSW 9 16.09 Clear CLR 28 22     71%   30 1016.9        
May 24 16:55 WSW 9 16.09 Clear CLR 28 21     69%   30 1016.9        
May 24 16:35 WSW 11 16.09 Partly Cloudy SCT050 28 21     67%   30 1016.9        
May 24 16:15 WSW 13 16.09 Clear CLR 30 21     59%   33 1016.9        
May 24 15:55 SSE 9 16.09 Clear CLR 30 21     58%   33 1016.6        
May 24 15:35 SE 9 16.09 Clear CLR 30 21     59%   33 1016.9        
May 24 15:15 E 13 16.09 Clear CLR 31 22     58%   34 1016.9        
May 24 14:55 ESE 11 16.09 Partly Cloudy SCT049 SCT065 SCT075 30 21     57%   33 1017.3        
May 24 14:35 ESE 11 16.09 Partly Cloudy SCT049 SCT065 SCT075 31 21     58%   34 1017.3        
May 24 14:15 ESE 5 16.09 Partly Cloudy SCT049 SCT070 31 21     55%   33 1017.3        
May 24 13:55 ESE 9 16.09 Partly Cloudy SCT048 SCT070 31 22     58%   34 1017.6        
May 24 13:35 E 8 16.09 Partly Cloudy SCT046 SCT060 30 21     56%   33 1018        
May 24 13:15 SE 5 16.09 Partly Cloudy SCT044 SCT050 SCT090 30 21     59%   33 1018.3        
May 24 12:55 Calm 16.09 Partly Cloudy SCT039 SCT047 SCT065 31 22     59%   35 1018.3        
May 24 12:35 Calm 16.09 Partly Cloudy SCT039 SCT047 31 22     59%   34 1018.6        
May 24 12:15 NNE 9 16.09 Partly Cloudy SCT039 SCT045 SCT095 30 22     60%   33 1019        
May 24 11:55 Calm 16.09 Partly Cloudy SCT029 SCT034 SCT042 29 22     64%   32 1019.3        
May 24 11:35 ESE 9 16.09 Mostly Cloudy SCT027 BKN038 BKN048 29 22     66%   32 1019.3        
May 24 11:15 S 5 16.09 Mostly Cloudy SCT025 SCT050 BKN090 29 22     68%   32 1019.7        
May 24 10:55 Calm 16.09 Clear CLR 28 23     71%   32 1019.7        
May 24 10:35 Calm 16.09 Clear CLR 27 22     74%   30 1020        
May 24 10:15 Calm 16.09 Clear CLR 27 22     78%   29 1019.7        
May 24 09:55 Calm 16.09 Clear CLR 26 23     83%   28 1020        
May 24 09:35 Calm 16.09 Clear CLR 25 22     87%   26 1020        
May 24 09:15 Calm 8.05 Fog/Mist CLR 24 22     91%   25 1020        
May 24 08:55 Calm 8.05 Fog/Mist BKN003 23 22     95%   24 1020        
May 24 08:35 Calm 4.83 Fog/Mist OVC003 22 22     98%   23 1020        
May 24 08:15 Calm 8.05 Fog/Mist OVC003 22 22     98%   23 1020        
May 24 07:55 Calm 8.05 Fog/Mist OVC003 22 21     99%   23 1019.7        
May 24 07:35 Calm 11.27 Mostly Cloudy BKN003 21 21     100%   22 1019.3        
May 24 07:15 Calm 16.09 Partly Cloudy SCT003 21 21     99%     1019.3        
May 24 06:55 Calm 16.09 Mostly Cloudy BKN003 21 21     100%     1019.3        
May 24 06:35 Calm 16.09 Partly Cloudy SCT003 20 20     100%     1019.3        
May 24 06:15 Calm 11.27 Clear CLR 20 20     100%     1019        
May 24 05:55 Calm 11.27 Clear CLR 20 20     100%     1019        
May 24 05:35 Calm 16.09 Clear CLR 20 20     100%     1018.6        
May 24 05:15 Calm 16.09 Partly Cloudy SCT050 20 20     99%     1018.3        
May 24 04:55 Calm 16.09 Mostly Cloudy BKN050 20 20     100%     1018        
May 24 04:35 Calm 16.09 Clear CLR 20 20     99%     1018        
May 24 04:15 Calm 16.09 Clear CLR 20 20     100%     1018        
May 24 03:55 Calm 16.09 Clear CLR 20 20     100%     1018        
May 24 03:35 ENE 5 16.09 Clear CLR 20 20     100%     1018        
May 24 03:15 Calm 16.09 Clear CLR 20 20     100%     1017.6        
May 24 02:55 Calm 16.09 Clear CLR 21 21     100%     1018        
May 24 02:35 Calm 16.09 Clear CLR 21 21     100%     1018        
May 24 02:15 Calm 16.09 Partly Cloudy SCT060 21 21     100%     1018        
May 24 01:55 Calm 16.09 Partly Cloudy SCT060 21 21     100%   22 1018        
May 24 01:35 Calm 16.09 Clear CLR 21 21     100%   22 1018        
May 24 01:15 Calm 11.27 Clear CLR 21 21     100%     1018.3        
May 24 00:55 Calm 16.09 Clear CLR 21 21     100%   22 1018.3        
May 24 00:35 Calm 16.09 Clear CLR 22 22     99%   23 1018.3        
May 24 00:15 Calm 16.09 Clear CLR 22 22     99%   23 1018.6        
May 23 23:55 Calm 16.09 Clear CLR 22 22     99%   23 1018.6        
May 23 23:35 Calm 16.09 Clear CLR 22 22     98%   23 1018.6        
May 23 23:15 Calm 16.09 Partly Cloudy SCT100 22 22     98%   23 1019        
May 23 22:55 Calm 16.09 Clear CLR 23 22     97%   23 1019        
May 23 22:35 Calm 16.09 Partly Cloudy SCT080 22 22     98%   23 1019.3        
May 23 22:15 Calm 16.09 Clear CLR 24 22     89%   25 1019        
May 23 21:55 Calm 16.09 Clear CLR 25 22     84%   25 1019        
May 23 21:35 W 5 16.09 Clear CLR 25 22     87%   25 1018.6        
May 23 21:15 Calm 16.09 Clear CLR 25 22     86%   26 1018.3        
May 23 20:55 Calm 16.09 Clear CLR 25 23     85%   26 1018        
May 23 20:35 NNW 5 16.09 Clear CLR 26 23     83%   28 1017.6        
May 23 20:15 WNW 8 16.09 Clear CLR 26 23     81%   28 1017.6        
May 23 19:55 W 5 16.09 Clear CLR 27 23     78%   29 1017.3        
May 23 19:35 WNW 9 16.09 Clear CLR 27 22     74%   30 1017.3        
May 23 19:15 WNW 9 16.09 Clear CLR 28 21     65%   31 1016.9        
May 23 18:55 Calm 16.09 Clear CLR 29 21     62%   31 1016.9        
May 15 12:55 ENE 11 16.09 Mostly Cloudy BKN055 BKN070 28 20     60%   30 1015.6        
May 15 11:15 E 11 16.09 Clear CLR 28 20     62%   29 1016.3        
May 14 20:35 Calm 16.09 Clear CLR 26 21     70%   28 1014.6        
May 14 18:35 N 8 16.09 Clear CLR 31 19     47%   32 1014.2        
May 14 09:35 Calm 16.09 Clear CLR 27 20     62%   29 1018.3        
May 14 05:55 Calm 11.27 Clear CLR 16 16     99%     1017.6        
May 14 01:15 Calm 16.09 Clear CLR 19 18     96%     1018        
May 14 00:15 Calm 16.09 Clear CLR 19 18     94%     1018.3        
May 13 11:15 NNW 13 16.09 Clear CLR 30 16     42%   30 1021.3        
May 12 15:35 WNW 11 16.09 Clear CLR 32 14     33%   31 1019.3        
May 12 07:55 Calm 16.09 Clear CLR 20 17     84%     1022.4        
Notice The following observation data may not be complete
May 12 06:35   16.09 Clear CLR          %              
May 11 23:55 Calm 16.09 Clear CLR 19 17     89%     1019.7        
May 11 17:15 S 11 16.09 Clear CLR 31 15     37%   31 1018        
Notice The following observation data may not be complete
Jun 12 07:15   16.09 Clear CLR          %              
Notice The following observation data may not be complete
Jun 12 06:35   16.09 Clear CLR          %              
Jun 11 15:15 SSE 15 16.09 Clear   31 21     55%   34 1020        
Notice The following observation data may not be complete
Jun 11 12:35   16.09 Mostly Cloudy SCT034 SCT046 BKN070          %              
Jun 11 12:15 SE 15 16.09 Mostly Cloudy SCT029 SCT050 BKN070 29 22     64%   32 1021.3        
Jun 11 10:15 SE 11 16.09 Partly Cloudy SCT021 28 22     73%   30 1022        
Notice The following observation data may not be complete
Jun 11 04:35   16.09 Clear CLR          %              
Jun 11 03:15 Calm 16.09 Mostly Cloudy BKN070 18 17     92%     1019.3        
Jun 10 17:55 SSE 11 16.09 Clear   29 17     49%   30 1017.6        
Notice The following observation data may not be complete
Jun 10 15:35   16.09 Partly Cloudy SCT075 SCT095          %              
Jun 09 20:35 Calm 16.09 Partly Cloudy SCT065 23 18     70%   24 1014.6        
Jun 09 15:15 Calm 16.09 Mostly Cloudy BKN065 28 15     44%   28 1014.6        
Jun 09 11:35 SSW 8 16.09 Mostly Cloudy BKN050 27 15     49%   27 1015.9        
Jun 09 09:55 Calm 16.09 Clear CLR 25 17     61%   25 1015.9        
Jun 09 04:15 Calm 16.09 Clear CLR 16 15     94%     1013.6        
Jun 09 01:15 Calm 16.09 Clear CLR 17 16     94%     1013.6        
Notice The following observation data may not be complete
Jun 08 21:15   16.09 Mostly Cloudy BKN060          %              
Notice The following observation data may not be complete
Jun 08 16:15   16.09 Partly Cloudy SCT055          %              
Jun 08 14:15 W 11 16.09 Clear CLR 27 15     48%   27 1012.5        
Jun 08 13:15 WSW 8 16.09 Partly Cloudy SCT040 SCT046 26 15     51%   26 1013.2        
Jun 08 08:15 Calm 16.09 Clear   19 16     81%     1013.9        
Jun 08 07:55 Calm 16.09 Clear CLR 18 16     88%     1013.9        
Jun 08 07:15 Calm 16.09 Mostly Cloudy BKN048 17 15     88%     1013.6        
Jun 07 23:15 Calm 16.09 Clear CLR 18 14     77%     1012.5        
Jun 07 22:35 Calm 16.09 Clear CLR 18 15     82%     1012.2        
Jun 07 19:35 N 9 16.09 Clear CLR 25 13     47%   25 1010.8        
Jun 07 19:15 N 8 16.09 Clear CLR 26 13     44%   26 1010.5        
Notice The following observation data may not be complete
Jun 07 15:15   16.09 Partly Cloudy SCT043 SCT050          %              
Jun 07 10:15 NE 13 16.09 Clear CLR 23 17     67%   24 1010.5        
Jun 07 09:55 NE 21 16.09 Clear CLR 23 17     67%   23 1010.5        
Jun 06 12:35 NE 15 16.09 Partly Cloudy SCT014 SCT038 24 22     86%   25 1009.5        
Jun 06 04:35 Calm 11.27 Partly Cloudy SCT036 SCT065 SCT110 21 21     98%     1009.2        
Notice The following observation data may not be complete
Jun 05 22:15   16.09 Clear CLR          %              
Jun 05 17:15 SSE 11 16.09 Thunderstorms and Rain OVC095 23 22     96%   24 1009.8   0